Location: Downe
(51.3167°N, 0.0500°E)
Time: 21:24:14
(UTC+00:00)

PAYLOAD B - Pass Details

Date: 17 November 2019
Orbit: 848 x 872 km, 99.1° (Epoch: 07 December)

Event Time Altitude Azimuth Distance (km) Brightness Sun altitude
Rises 05:46:24 0° 15° (NNE) 3,432 7.4 -14.4°
Reaches altitude 10° 05:48:47 10° 14° (NNE) 2,490 6.7 -14.0°
Maximum altitude 05:54:18 80° 289° (WNW) 868 4.1 -13.2°
Drops below altitude 10° 05:59:47 10° 203° (SSW) 2,470 6.6 -12.4°
Sets 06:02:08 0° 202° (SSW) 3,402 7.3 -12.0°
